{"data":{"norad_id":62422,"intl_designator":"2024-249P","name":"STARLINK-32692","alt_names":[],"object_type":"PAYLOAD","status":"ACTIVE","operator":null,"country":"US","launch_date":"2024-12-23","launch_site_code":"AFETR","launch_vehicle":null,"mission":null,"orbit_class":"UNKNOWN","rcs_meters":null,"size_class":null,"mass_kg":null,"dimensions":null,"purposes":["comms"],"wikipedia_slug":null,"has_3d_model":false,"image_url":null,"decayed_at":null,"tle_current":{"epoch":"2026-05-25T00:14:38.103936Z","epoch_age_seconds":77735,"freshness":"FRESH","line1":"1 62422U 24249P   26145.01016324  .00007357  00000+0  27663-3 0  9990","line2":"2 62422  43.0022 251.0228 0001635 273.5468  86.5197 15.27579082 79399","mean_motion":15.27579082,"eccentricity":0.0001635,"inclination_deg":43.0022,"raan_deg":251.0228,"arg_perigee_deg":273.5468,"mean_anomaly_deg":86.5197,"bstar":0.00027663,"rev_number":7939,"period_min":94.266805363338,"perigee_km":481.93004048714,"apogee_km":484.17364923941,"semimajor_km":6861.1888448633,"source":"CELESTRAK","updated_at":"2026-05-25T13:38:19.654785Z"}}}